This is the latest recevied weather packets stored in our database for station/object K9ABJ. If no packets are shown the sender has not sent any weather packets the latest 10 day(s).
| Time | Temp. | Humidity | Pressure | Rain* | Wind** | Luminosity | Snow |
|---|---|---|---|---|---|---|---|
| 1787823902 | 17.78° C | 96% | 1013.3 hPa | 0 mm | - | 0 W/m² | - |
| 1787823597 | 18.33° C | 96% | 1013.1 hPa | 0 mm | - | 0 W/m² | - |
| 1787823292 | 17.78° C | 96% | 1013 hPa | 0 mm | - | 0 W/m² | - |
| 1787822990 | 17.78° C | 96% | 1013 hPa | 0 mm | - | 0 W/m² | - |
| 1787822686 | 17.78° C | 96% | 1013 hPa | 0 mm | - | 0 W/m² | - |
| 1787822380 | 17.78° C | 96% | 1012.9 hPa | 0 mm | - | 0 W/m² | - |
| 1787822075 | 18.33° C | 96% | 1013 hPa | 0 mm | - | 0 W/m² | - |
| 1787821773 | 18.33° C | 96% | 1013 hPa | 0 mm | - | 0 W/m² | - |
| 1787821470 | 18.33° C | 96% | 1013.1 hPa | 0 mm | - | 0 W/m² | - |
| 1787821170 | 18.33° C | 95% | 1013.1 hPa | 0 mm | - | 0 W/m² | - |
| 1787820864 | 18.33° C | 96% | 1013 hPa | 0 mm | - | 0 W/m² | - |
| 1787820559 | 18.89° C | 96% | 1013 hPa | 0 mm | - | 0 W/m² | - |
| 1787820255 | 18.33° C | 95% | 1012.8 hPa | 0 mm | - | 0 W/m² | - |
| 1787819950 | 18.33° C | 95% | 1012.9 hPa | 0 mm | - | 0 W/m² | - |
| 1787819646 | 18.89° C | 95% | 1012.8 hPa | 0 mm | - | 0 W/m² | - |
| 1787819345 | 18.89° C | 95% | 1013 hPa | 0 mm | - | 0 W/m² | - |
| 1787819040 | 18.89° C | 95% | 1013 hPa | 0 mm | - | 0 W/m² | - |
| 1787818738 | 18.89° C | 95% | 1013.1 hPa | 0 mm | - | 0 W/m² | - |
| 1787818434 | 18.89° C | 95% | 1012.9 hPa | 0 mm | - | 0 W/m² | - |
| 1787818130 | 18.89° C | 95% | 1013.1 hPa | 0 mm | - | 0 W/m² | - |
| 1787817829 | 18.89° C | 95% | 1012.9 hPa | 0 mm | - | 0 W/m² | - |
| 1787817526 | 18.89° C | 95% | 1012.9 hPa | 0 mm | - | 0 W/m² | - |
| 1787817221 | 19.44° C | 95% | 1012.9 hPa | 0 mm | - | 0 W/m² | - |
| 1787816920 | 19.44° C | 95% | 1012.7 hPa | 0 mm | - | 0 W/m² | - |
| 1787816615 | 18.89° C | 95% | 1012.8 hPa | 0 mm | - | 0 W/m² | - |
* Rain latest hour (hover to see other rain measurements)
** Current wind speed in m/s (hover to see current wind gust speed)